Location: Yellowknife
(62.4500°N, 114.3500°W)
Time: 01:42:33
(UTC-07:00)

Envisat - Pass Details

Date: 05 October 2023
Orbit: 762 x 764 km, 98.3° (Epoch: 02 December)

Event Time Altitude Azimuth Distance (km) Brightness Sun altitude
Rises 05:26:40 0° 18° (NNE) 3,249 6.9 -17.6°
Reaches altitude 10° 05:29:01 10° 22° (NNE) 2,318 6.1 -17.4°
Maximum altitude 05:34:05 63° 104° (ESE) 859 3.4 -16.8°
Drops below altitude 10° 05:39:07 10° 185° (S) 2,302 5.2 -16.3°
Enters shadow 05:40:46 - 188° (S) 2,955 5.7 -16.1°
